[Iaude] MPEC V93: 2023 VV2 [a=1.92,e=0.47,i=7.4,H=23.2]
    mpec at marsden.cfa.harvard.edu 
    mpec at marsden.cfa.harvard.edu
       
    Tue Nov  7 08:34:34 EST 2023
    
    
  
M.P.E.C. 2023-V93                              Issued 2023 November 7, 13:32 UT
     The Minor Planet Electronic Circulars contain information on unusual
         minor planets, routine data on comets and natural satellites,
         and occasional editorial announcements.  They are published
    on behalf of Division F of the International Astronomical Union by the
          Minor Planet Center, Smithsonian Astrophysical Observatory,
                          Cambridge, MA 02138, U.S.A.
			  
             Prepared using the Tamkin Foundation Computer Network
                              MPC at CFA.HARVARD.EDU
            URL https://www.minorplanetcenter.net/    ISSN 1523-6714
                                    2023 VV2                                    
Observations:
     K23V02V  C2023 11 04.21270222 08 27.714-05 33 16.26         19.50GVEV093F51
     K23V02V  C2023 11 04.22624422 08 35.150-05 34 09.64         19.85GVEV093F51
     K23V02V  C2023 11 04.25014122 08 48.291-05 35 43.77         19.77GVEV093F51
     K23V02V* S2023 11 04.91805 22 15 38.28 -06 19 33.6          19   RLEV093C51
     K23V02V  s2023 11 04.91805 1 + 6394.2709 - 2249.5561 -  603.1962   EV093C51
     K23V02V  S2023 11 04.98273 22 16 19.24 -06 23 58.5                LEV093C51
     K23V02V  s2023 11 04.98273 1 + 6397.5723 - 2245.3186 -  583.3344   EV093C51
     K23V02V  S2023 11 05.04742 22 17 00.40 -06 28 25.3                LEV093C51
     K23V02V  s2023 11 05.04742 1 + 6400.8160 - 2241.0719 -  563.3534   EV093C51
     K23V02V  S2023 11 05.11198 22 17 41.56 -06 32 51.7                LEV093C51
     K23V02V  s2023 11 05.11198 1 + 6400.7720 - 2224.6319 -  626.1543   EV093C51
     K23V02V  S2023 11 05.17667 22 18 23.27 -06 37 18.5                LEV093C51
     K23V02V  s2023 11 05.17667 1 + 6404.1286 - 2220.4402 -  606.0726   EV093C51
     K23V02V  C2023 11 07.05840022 40 09.94 -08 52 15.4                WEV093X09
     K23V02V mC2023 11 07.06195322 40 17.591-08 54 47.45         19.30GVEV093I52
     K23V02V mC2023 11 07.06395622 40 19.016-08 54 56.34         19.51GVEV093I52
     K23V02V KC2023 11 07.06499022 40 19.11 -08 55 06.4          19.5 GXEV093858
     K23V02V  C2023 11 07.06539922 40 14.83 -08 52 46.7                WEV093X09
     K23V02V mC2023 11 07.06627022 40 20.658-08 55 07.07         19.45GVEV093I52
     K23V02V mC2023 11 07.06644322 40 20.759-08 55 08.00         19.67GVEV093I52
     K23V02V KC2023 11 07.06894122 40 21.89 -08 55 24.3          19.4 GXEV093858
     K23V02V  C2023 11 07.07239522 40 19.73 -08 53 18.1                WEV093X09
     K23V02V KC2023 11 07.07374222 40 25.26 -08 55 45.9          19.6 GXEV093858
Observer details:
858 Tebbutt Observatory, Edgewood.  Observer F. B. Zoltowski.  0.51-m f/8.1
    Schmidt-Cassegrain + CCD.
C51 WISE.  Observer Near-Earth Object Wide-field Infrared Survey Explorer.
    Measurers A. K. Mainzer, J. M. Bauer, T. Grav, J. R. Masiero, R. M. Cutri,
    J. W. Dailey, Y. G. Kwon, J. Pittichova, E. L. Wright.
F51 Pan-STARRS 1, Haleakala.  Observers J. Bulger, T. Lowe, P. Minguez, A.
    Schultz, I. Smith.  Measurers K. Chambers, T. de Boer, J. Fairlamb, H.
    Gao, M. Huber, C.-C. Lin, E. Magnier, Y. Ramanjooloo, R. Wainscoat, R.
    Weryk.  1.8-m Ritchey-Chretien + CCD.
I52 Steward Observatory, Mt. Lemmon Station.  Observer H. Groeller.  Measurers
    E. C. Beshore, D. Fay, J. B. Fazekas, D. C. Fuls, A. R. Gibbs, A. D.
    Grauer, H. Groeller, J. K. Hogan, R. A. Kowalski, S. M. Larson, G. J.
    Leonard, D. Rankin, R. L. Seaman, F. C. Shelly, K. W. Wierzchos.  1.0-m
    prime focus + CCD.
X09 Deep Random Survey, Rio Hurtado.  Observers A. Schnabel, D. Ruhela.
    Measurer S. Deen.  0.43-m reflector + CMOS.
Orbital elements:
2023 VV2                                                 Earth MOID = 0.0275 AU
Epoch 2023 Sept. 13.0 TT = JDT 2460200.5                Veres                   
M 340.16174              (2000.0)            P               Q                  
n   0.37050696     Peri.  178.47429     +0.77841112     -0.62214149             
a   1.9198699      Node   220.39717     +0.57457630     +0.75984551             
e   0.4686400      Incl.    7.42603     +0.25286007     +0.18861276             
P   2.66           H   23.24          G   0.15           U   9                  
Residuals in seconds of arc
231104 F51  0.1+  0.0     231105 C51  1.7-  1.8-    231107 X09  0.1-  1.3+
231104 F51  0.0   0.0     231105 C51  0.1-  0.5-    231107 I52  0.3+  0.0
231104 F51  0.1-  0.0     231107 X09  0.2+  1.3+    231107 I52  0.0   0.1-
231104 C51  0.3+  0.1-    231107 I52  0.1-  0.0     231107 858  0.1+  0.1-
231104 C51  0.4+  0.3+    231107 I52  0.1+  0.2+    231107 X09  0.3-  1.2+
231105 C51  0.3+  0.4-    231107 858  0.1+  0.1-    231107 858  0.0   0.1+
Ephemeris:
2023 VV2                 a,e,i = 1.92, 0.47, 7                   q = 1.0201
Date    TT    R. A. (2000) Decl.     Delta      r    Elong.  Phase     V
2023 10 08    20 18 38.0 +09 02 17   0.1638  1.0721   112.2    59.7    21.6
...
2023 10 23    20 51 28.9 +03 43 29   0.1120  1.0322   106.3    67.7    20.9
...
2023 10 31    21 33 03.9 -01 29 24   0.08545 1.0222   107.7    67.7    20.3
...
2023 11 06    22 27 32.2 -07 35 13   0.06889 1.0202   112.8    63.6    19.7
2023 11 07    22 39 27.9 -08 48 40   0.06668 1.0203   114.1    62.5    19.6
2023 11 08    22 52 19.9 -10 04 52   0.06468 1.0205   115.5    61.2    19.5
...
2023 11 14    00 28 01.9 -17 38 12   0.05854 1.0249   125.8    51.6    19.0
...
2023 11 22    02 43 36.4 -21 43 46   0.06867 1.0379   135.5    41.8    19.1
...
2023 12 07    04 47 53.7 -16 58 14   0.1226  1.0827   140.5    35.4    20.3
M. P. C. Staff               (C) Copyright 2023 MPC           M.P.E.C. 2023-V93
    
    
More information about the Iaude
mailing list